DW6885 Weather Reports


Display with metric or nautical units.
time (UTC)temp
F
wind
direction
speed
MPH
gust
MPH
rain 1hr
in
rain 24hr
in
rain mn
in
humidity
%
barometer
mb
20140920155853 59 245 1.0 6.0 0.00 0.00 0.00 83 1024.2
20140920154537 59 141 2.0 3.0 0.00 0.00 0.00 83 1024.2
20140920154351 59 76 1.0 5.0 0.00 0.00 0.00 83 1024.2
20140920153538 59 170 1.0 5.0 0.00 0.00 0.00 84 1024.4
20140920152849 58 276 0.0 4.0 0.00 0.00 0.00 83 1024.5
20140920152537 58 11 0.0 3.0 0.00 0.00 0.00 84 1024.7
20140920151349 57 200 1.0 6.0 0.00 0.00 0.00 84 1024.6
20140920145850 56 88 0.0 5.0 0.00 0.00 0.00 85 1024.8
20140920145537 56 88 1.0 5.0 0.00 0.00 0.00 86 1024.9
20140920144352 55 259 0.0 8.0 0.00 0.00 0.00 86 1025.0
20140920142950 55 211 0.0 5.0 0.00 0.00 0.00 86 1025.1
20140920142536 55 203 1.0 5.0 0.00 0.00 0.00 86 1025.3
20140920141537 55 348 0.0 3.0 0.00 0.00 0.00 87 1025.5
20140920141349 54 348 0.0 4.0 0.00 0.00 0.00 87 1025.5
20140920140541 54 203 0.0 3.0 0.00 0.00 0.00 88 1025.6
20140920135750 54 178 1.0 3.0 0.00 0.00 0.00 87 1025.6
20140920134537 54 212 1.0 3.0 0.00 0.00 0.00 87 1025.6
20140920134252 53 220 0.0 3.0 0.00 0.00 0.00 87 1025.6
20140920132851 52 190 1.0 6.0 0.00 0.00 0.00 88 1025.6
20140920132536 52 212 1.0 6.0 0.00 0.00 0.00 88 1025.6
20140920131536 52 78 1.0 5.0 0.00 0.00 0.00 89 1025.6
20140920131248 51 79 2.0 5.0 0.00 0.00 0.00 88 1025.6
20140920130537 51 194 1.0 3.0 0.00 0.00 0.00 89 1025.7
20140920125848 51 259 0.0 4.0 0.00 0.00 0.00 90 1025.7
20140920125537 51 229 1.0 3.0 0.00 0.00 0.00 90 1025.7
20140920124255 50 294 0.0 3.0 0.00 0.00 0.00 92 1025.8
20140920122749 49 250 1.0 4.0 0.00 0.00 0.00 93 1025.9
20140920122538 49 303 1.0 3.0 0.00 0.00 0.00 93 1026.0
20140920121250 47 144 0.0 3.0 0.00 0.00 0.00 94 1025.9
20140920115848 46 245 0.0 3.0 0.00 0.00 0.00 96 1025.8
20140920114149 45 229 0.0 2.0 0.00 0.00 0.00 97 1026.1
20140920113536 45 221 0.0 1.0 0.00 0.00 0.00 97 1026.2
20140920112649 44 221 0.0 3.0 0.00 0.00 0.00 97 1026.2
20140920111538 43 216 0.0 2.0 0.00 0.00 0.00 98 1026.4
20140920111154 43 216 0.0 2.0 0.00 0.00 0.00 98 1026.3
20140920110537 43 200 0.0 3.0 0.00 0.00 0.00 98 1026.4
20140920105653 41 200 0.0 4.0 0.00 0.00 0.00 98 1026.5
20140920104538 41 214 0.0 0.0 0.00 0.00 0.00 98 1026.7
20140920104153 40 214 0.0 0.0 0.00 0.00 0.00 98 1026.8
20140920103537 40 214 0.0 1.0 0.00 0.00 0.00 98 1026.7
20140920102652 39 214 0.0 1.0 0.00 0.00 0.00 98 1026.6
20140920102538 39 214 0.0 1.0 0.00 0.00 0.00 98 1026.4
20140920101153 38 214 0.0 1.0 0.00 0.00 0.00 98 1026.6
20140920100538 37 214 0.0 1.0 0.00 0.00 0.00 98 1026.6
20140920095652 36 214 0.0 0.0 0.00 0.00 0.00 97 1026.6
20140920095537 37 214 0.0 1.0 0.00 0.00 0.00 97 1026.6
20140920094051 35 214 0.0 2.0 0.00 0.00 0.00 97 1026.8
20140920093537 36 214 0.0 1.0 0.00 0.00 0.00 97 1026.8
20140920092551 35 214 0.0 1.0 0.00 0.00 0.00 97 1026.7
20140920092537 35 214 0.0 1.0 0.00 0.00 0.00 97 1026.7
20140920091051 35 214 0.0 1.0 0.00 0.00 0.00 97 1026.7
20140920090538 35 214 0.0 0.0 0.00 0.00 0.00 96 1026.8
20140920085749 35 214 0.0 0.0 0.00 0.00 0.00 96 1027.0
20140920085537 35 214 0.0 0.0 0.00 0.00 0.00 96 1027.1
20140920084149 35 214 0.0 0.0 0.00 0.00 0.00 96 1027.2
20140920082553 35 214 0.0 0.0 0.00 0.00 0.00 96 1027.4
20140920082538 36 214 0.0 0.0 0.00 0.00 0.00 96 1027.4
20140920081538 36 214 0.0 0.0 0.00 0.00 0.00 96 1027.5
20140920081149 36 214 0.0 0.0 0.00 0.00 0.00 96 1027.4
20140920080538 36 214 0.0 0.0 0.00 0.00 0.00 96 1027.3
20140920075551 36 214 0.0 0.0 0.00 0.00 0.00 96 1027.2
20140920075538 36 214 0.0 0.0 0.00 0.00 0.00 96 1027.2
20140920073952 36 214 0.0 0.0 0.00 0.00 0.00 96 1027.1
20140920073538 37 214 0.0 1.0 0.00 0.00 0.00 96 1027.1
20140920072546 37 214 0.0 1.0 0.00 0.00 0.00 96 1027.1
20140920072449 36 214 0.0 1.0 0.00 0.00 0.00 96 1027.1
20140920071553 37 214 0.0 0.0 0.00 0.00 0.00 96 1027.1
20140920070951 36 214 0.0 0.0 0.00 0.00 0.00 96 1027.1
20140920070609 37 214 0.0 1.0 0.00 0.00 0.00 96 1027.2
20140920065449 36 214 0.0 0.0 0.00 0.00 0.00 96 1027.2
20140920063950 36 214 0.0 0.0 0.00 0.00 0.00 96 1027.3
20140920062449 36 214 0.0 1.0 0.00 0.00 0.00 96 1027.6
20140920061550 36 214 0.0 0.0 0.00 0.00 0.00 95 1027.6
20140920060949 36 214 0.0 0.0 0.00 0.00 0.00 95 1027.7
20140920060702 36 214 0.0 0.0 0.00 0.00 0.00 95 1027.7
20140920055454 36 214 0.0 0.0 0.00 0.00 0.00 95 1027.7
20140920053952 36 214 0.0 0.0 0.00 0.00 0.00 94 1028.0
20140920052449 36 214 0.0 0.0 0.00 0.00 0.00 94 1027.8
20140920051552 37 214 0.0 0.0 0.00 0.00 0.00 93 1027.6
20140920050949 37 214 0.0 0.0 0.00 0.00 0.00 93 1027.6
20140920045353 37 214 0.0 0.0 0.00 0.00 0.00 93 1027.7
20140920043850 37 214 0.0 1.0 0.00 0.00 0.00 92 1027.6
20140920043723 38 214 0.0 0.0 0.00 0.00 0.00 92 1027.6
20140920042555 38 214 0.0 0.0 0.00 0.00 0.00 92 1027.6
20140920042350 38 214 0.0 0.0 0.00 0.00 0.00 92 1027.6
20140920041545 38 214 0.0 0.0 0.00 0.00 0.00 92 1027.7
20140920040910 38 214 0.0 0.0 0.00 0.00 0.00 92 1027.6
20140920035537 38 214 0.0 2.0 0.00 0.00 0.00 92 1027.9
20140920035354 38 214 0.0 2.0 0.00 0.00 0.00 92 1027.8
20140920034537 38 209 0.0 1.0 0.00 0.00 0.00 92 1027.9
20140920033848 38 209 0.0 1.0 0.00 0.00 0.00 92 1028.1
20140920033537 38 209 0.0 1.0 0.00 0.00 0.00 92 1028.1
20140920032349 38 209 0.0 1.0 0.00 0.00 0.00 92 1028.2
20140920030849 38 209 0.0 0.0 0.00 0.00 0.00 92 1028.5
20140920030539 38 209 0.0 0.0 0.00 0.00 0.00 91 1028.5
20140920025349 38 209 0.0 2.0 0.00 0.00 0.00 91 1028.6
20140920023849 38 209 0.0 2.0 0.00 0.00 0.00 91 1028.5
20140920022702 39 209 0.0 1.0 0.00 0.00 0.00 91 1028.7
20140920022248 38 209 0.0 2.0 0.00 0.00 0.00 91 1028.8
20140920021658 39 209 0.0 1.0 0.00 0.00 0.00 90 1028.7
20140920020748 39 209 0.0 1.0 0.00 0.00 0.00 90 1028.7
20140920015248 39 209 0.0 1.0 0.00 0.00 0.00 90 1028.5
20140920013750 39 209 0.0 1.0 0.00 0.00 0.00 90 1028.5
20140920013549 39 209 0.0 1.0 0.00 0.00 0.00 90 1028.5
20140920012704 40 209 0.0 1.0 0.00 0.00 0.00 90 1028.6
20140920012348 39 209 0.0 2.0 0.00 0.00 0.00 90 1028.6
20140920011701 40 209 0.0 0.0 0.00 0.00 0.00 89 1028.6
20140920010748 40 209 0.0 1.0 0.00 0.00 0.00 89 1028.9
20140920010701 40 209 0.0 1.0 0.00 0.00 0.00 89 1028.9
20140920005553 41 209 0.0 1.0 0.00 0.00 0.00 89 1028.8
20140920005249 40 209 0.0 1.0 0.00 0.00 0.00 89 1028.7
20140920003752 40 209 0.0 0.0 0.00 0.00 0.00 88 1028.7
20140920002547 41 209 0.0 0.0 0.00 0.00 0.00 87 1028.6
20140920002248 41 209 0.0 1.0 0.00 0.00 0.00 87 1028.6
20140920001549 41 209 0.0 0.0 0.00 0.00 0.00 87 1028.5
20140920000750 41 209 0.0 0.0 0.00 0.00 0.00 87 1028.6
20140920000545 41 209 0.0 0.0 0.00 0.00 0.00 87 1028.6
20140919235909 42 219 0.0 0.0 0.00 0.00 0.00 92 1021.2
20140919235208 41 209 0.0 0.0 0.00 0.00 0.00 85 1028.4
20140919233706 42 209 0.0 0.0 0.00 0.00 0.00 84 1028.3
20140919232206 43 209 0.0 0.0 0.00 0.00 0.00 80 1028.1
20140919230658 45 209 0.0 0.0 0.00 0.00 0.00 75 1027.9
20140919225154 47 209 0.0 0.0 0.00 0.00 0.00 71 1027.9
20140919223650 48 209 0.0 0.0 0.00 0.00 0.00 68 1027.9
20140919222146 50 209 0.0 0.0 0.00 0.00 0.00 66 1027.8
20140919220642 51 209 0.0 1.0 0.00 0.00 0.00 63 1027.7
20140919213635 53 241 0.0 4.0 0.00 0.00 0.00 58 1027.5
20140919212131 0 0.0 0.0 0.00 0.00 0.00 1027.6
20140919210823 0 0.0 0.0 0.00 0.00 0.00
20140919200713 0 0.0 0.0 0.00 0.00 0.00